"America/Chicago Time","Lifetime Energy (kWh)","Power (W)","AC Volts RMS (V) ","AC Amps RMS (mA)","Grid Frequency (Hz)","Inverter Temperature (C)"
"04/09/12 12:26:21","43.4592","70.9","215.69","355","60.03","14"
"04/09/12 12:31:22","43.467","41.6","215.3","324","59.96","13"
"04/09/12 12:36:21","43.4707","49.3","214.77","353","60.0","13"
"04/09/12 12:41:21","43.4742","52.4","214.84","297","60.0","12"
"04/09/12 12:46:22","43.4778","39.8","215.64","197","60.03","11"
"04/09/12 12:51:23","43.4815","55.9","216.29","249","60.03","11"
"04/09/12 12:56:22","43.4847","39.0","216.04","128","60.03","11"
"04/09/12 13:01:21","43.4883","49.4","216.23","342","60.0","11"
"04/09/12 13:06:22","43.4922","48.6","215.35","165","60.0","11"
"04/09/12 13:11:22","43.4957","40.4","215.55","189","60.03","11"
"04/09/12 13:16:21","43.4988","48.7","214.65","332","60.03","10"
"04/09/12 13:21:21","43.5036","63.6","215.06","323","60.03","10"
"04/09/12 13:26:21","43.5078","43.4","215.09","278","60.03","10"
"04/09/12 13:31:21","43.5104","35.5","215.1","105","60.0","10"
"04/09/12 13:36:22","43.5137","52.2","214.82","405","60.0","10"
"04/09/12 13:41:22","43.517","38.1","215.52","170","60.0","10"
"04/09/12 13:46:23","43.5195","38.8","214.37","386","60.0","9"
"04/09/12 13:51:21","43.5226","32.0","215.83","233","60.03","9"
"04/09/12 13:56:21","43.5248","29.0","215.93","15","60.03","9"
"04/09/12 14:01:21","43.5262","13.8","214.41","198","60.03","9"
"04/09/12 14:06:22","43.5275","23.3","215.3","204","60.03","9"
"04/09/12 14:11:22","43.5286","14.1","215.14","2","60.03","9"
"04/09/12 14:16:21","43.5294","12.9","215.05","1","60.0","8"
"04/09/12 14:21:22","43.5302","11.2","215.26","88","60.0","8"
"04/09/12 14:26:22","43.531","11.3","214.7","53","60.0","8"
"04/09/12 14:31:23","43.5316","11.7","215.29","10","60.0","7"
"04/09/12 14:36:21","43.5335","35.9","215.64","258","60.03","7"
"04/09/12 14:41:22","43.5355","22.2","213.9","148","60.03","7"
"04/09/12 14:46:22","43.5377","35.2","215.03","200","60.03","8"
"04/09/12 14:51:21","43.5405","47.2","215.69","76","60.0","8"
"04/09/12 14:56:22","43.5459","79.8","216.72","389","60.03","8"
"04/09/12 15:01:22","43.5523","65.1","216.24","330","60.03","9"
"04/09/12 15:06:22","43.5581","67.5","216.55","338","60.03","9"
"04/09/12 15:11:22","43.5634","40.9","216.38","109","60.0","9"
"04/09/12 15:16:23","43.568","63.6","216.4","323","60.03","9"
"04/09/12 15:21:22","43.5732","166.5","218.52","761","60.03","9"
"04/09/12 15:26:22","43.579","43.8","214.89","315","60.0","9"
"04/09/12 15:31:23","43.582","53.2","216.22","278","60.03","9"
"04/09/12 15:36:21","43.5871","46.4","216.2","96","60.0","9"
"04/09/12 15:41:21","43.5905","30.3","215.23","303","60.0","9"
"04/09/12 15:46:21","43.5927","26.1","215.65","159","60.03","9"
"04/09/12 15:51:21","43.5948","24.8","215.36","141","60.03","9"
"04/09/12 15:56:21","43.5972","31.2","214.9","124","60.03","9"
"04/09/12 16:01:22","43.5987","15.6","214.87","174","60.0","8"
"04/09/12 16:06:22","43.6006","30.5","215.3","310","60.07","8"
"04/09/12 16:11:22","43.6031","47.1","215.7","196","60.0","8"
"04/09/12 16:16:21","43.6058","20.2","215.08","21","60.03","7"
"04/09/12 16:21:22","43.6066","12.5","214.55","30","60.0","7"
"04/09/12 16:26:21","43.6084","33.1","215.48","115","60.03","7"
"04/09/12 16:31:21","43.6112","27.8","215.22","75","60.03","7"
"04/09/12 16:36:22","43.6135","29.4","214.97","71","60.03","7"
"04/09/12 16:41:21","43.6157","24.0","214.36","220","60.03","7"
"04/09/12 16:46:21","43.6179","20.8","214.65","23","60.03","7"
"04/09/12 16:51:22","43.6198","27.1","214.67","203","60.03","7"
"04/09/12 16:56:22","43.6218","32.1","215.58","179","60.03","7"
"04/09/12 17:01:22","43.6246","39.4","216.05","314","60.07","7"
"04/09/12 17:06:21","43.6278","39.7","215.43","221","60.03","8"
"04/09/12 17:11:21","43.6302","30.9","215.39","128","60.03","8"
"04/09/12 17:16:22","43.6325","34.6","215.26","177","60.03","8"
"04/09/12 17:21:22","43.6347","36.5","214.65","293","60.0","8"
"04/09/12 17:26:21","43.6365","32.3","213.95","146","60.03","8"
"04/09/12 17:31:22","43.6383","30.5","214.45","183","60.0","8"
"04/09/12 17:36:22","43.6398","17.0","214.61","13","60.03","8"
"04/09/12 17:41:22","43.6412","15.6","214.46","70","60.03","8"
"04/09/12 17:46:22","43.6424","11.6","213.67","184","60.07","8"
"04/09/12 17:51:21","43.6434","11.4","213.8","6","60.03","7"
"04/09/12 17:56:21","43.6443","11.4","213.04","28","60.0","7"
"04/09/12 18:01:21","43.6448","0.0","213.85","178","60.03","7"
"04/09/12 18:06:21","43.6454","15.1","214.2","24","60.07","7"
"04/09/12 18:11:21","43.6461","7.7","214.08","0","60.03","7"
"04/09/12 18:16:23","43.6468","3.3","214.52","191","60.0","6"
"04/09/12 18:21:22","43.6471","0.0","214.27","0","60.03","6"
"04/09/12 18:26:21","43.6476","1.0","214.01","0","60.0","6"
"04/09/12 18:36:21","43.6479","0.0","213.1","0","60.07","6"
"04/10/12 06:41:26","43.6482","0.0","213.42","0","60.03","2"
"04/10/12 06:46:23","43.6485","13.0","213.57","0","60.0","3"
"04/10/12 06:51:23","43.649","0.0","214.64","0","60.03","3"
"04/10/12 06:56:22","43.6496","12.1","213.66","2","60.03","4"
"04/10/12 07:01:22","43.6505","13.4","213.0","67","60.0","4"
"04/10/12 07:06:21","43.6515","14.9","212.74","229","60.03","4"
"04/10/12 07:11:21","43.6529","14.6","213.71","53","60.0","4"
"04/10/12 07:16:23","43.6545","22.5","214.23","31","60.03","5"
"04/10/12 07:21:22","43.6564","22.5","213.68","18","60.0","5"
"04/10/12 07:26:21","43.6586","29.8","213.77","244","60.03","5"
"04/10/12 07:31:22","43.6611","38.9","213.07","182","60.0","6"
"04/10/12 07:36:22","43.6639","34.0","214.15","209","60.03","6"
"04/10/12 07:41:23","43.6671","43.9","214.43","98","60.03","6"
"04/10/12 07:46:21","43.6705","39.7","214.77","372","60.07","6"
"04/10/12 07:51:22","43.6743","56.5","215.1","89","60.0","6"
"04/10/12 07:56:22","43.6781","42.1","214.67","277","60.03","6"
"04/10/12 08:01:22","43.682","57.3","214.83","319","60.03","7"
"04/10/12 08:06:23","43.6859","44.2","214.55","343","60.03","7"
"04/10/12 08:11:22","43.6898","58.9","214.2","311","60.03","7"
"04/10/12 08:16:23","43.6938","44.1","214.79","392","60.03","8"
"04/10/12 08:21:23","43.698","53.9","215.29","245","60.03","8"
"04/10/12 08:26:21","43.7025","73.4","215.28","190","60.03","8"
"04/10/12 08:31:22","43.7088","85.5","215.38","417","60.03","8"
"04/10/12 08:36:23","43.7156","89.4","215.34","435","60.03","9"
"04/10/12 08:41:22","43.7227","93.1","215.3","454","60.0","9"
"04/10/12 08:46:22","43.73","92.0","215.32","443","60.03","9"
"04/10/12 08:51:22","43.7374","100.8","215.51","484","60.0","9"
"04/10/12 08:56:22","43.7453","103.9","216.25","496","60.03","9"
"04/10/12 09:01:23","43.7534","107.5","216.3","509","60.0","10"
"04/10/12 09:06:21","43.7616","109.2","216.2","523","60.03","10"
"04/10/12 09:11:22","43.7695","100.9","215.82","483","60.03","10"
"04/10/12 09:16:23","43.7774","102.4","215.71","490","60.03","10"
"04/10/12 09:21:23","43.7857","109.9","216.43","520","60.03","10"
"04/10/12 09:26:23","43.7949","121.8","217.54","571","60.0","11"
"04/10/12 09:31:22","43.8047","128.4","217.63","597","60.03","11"
"04/10/12 09:36:22","43.8146","131.1","217.41","614","60.03","11"
"04/10/12 09:41:22","43.8224","52.1","214.88","285","60.0","11"
"04/10/12 09:46:22","43.8257","48.1","214.8","319","60.03","11"
"04/10/12 09:51:22","43.8292","44.1","214.37","207","60.03","10"
"04/10/12 09:56:23","43.833","49.0","214.14","139","60.03","9"
"04/10/12 10:01:21","43.8368","43.3","213.26","339","60.0","9"
"04/10/12 10:06:23","43.8407","41.2","214.14","82","60.03","9"
"04/10/12 10:11:21","43.8445","46.2","215.22","113","60.0","9"
"04/10/12 10:16:22","43.8484","43.8","214.81","351","60.0","9"
"04/10/12 10:21:22","43.8523","57.9","213.83","289","60.03","9"
"04/10/12 10:26:22","43.8561","58.5","214.87","303","60.03","9"
"04/10/12 10:31:22","43.86","58.9","215.91","329","60.0","9"
"04/10/12 10:36:21","43.8637","43.7","214.24","294","60.0","9"
"04/10/12 10:41:22","43.8676","47.0","214.75","101","60.03","9"
"04/10/12 10:46:22","43.8715","54.7","215.39","327","60.0","9"
"04/10/12 10:51:22","43.8754","56.2","215.96","345","60.03","9"
"04/10/12 10:56:23","43.8791","49.2","215.13","365","60.03","9"
"04/10/12 11:01:23","43.883","41.8","215.62","384","60.03","9"
"04/10/12 11:06:22","43.8868","43.9","215.57","384","60.0","9"
"04/10/12 11:16:23","43.8938","34.7","214.51","131","60.03","9"
"04/10/12 11:21:22","43.8967","46.3","215.63","194","60.03","9"
"04/10/12 11:26:23","43.9002","42.9","215.97","359","60.03","9"
"04/10/12 11:31:23","43.904","49.5","214.56","356","60.03","9"
"04/10/12 11:36:22","43.9078","54.4","214.95","237","60.07","9"
"04/10/12 11:41:23","43.9142","104.0","215.62","496","60.03","9"
"04/10/12 11:46:22","43.9231","142.9","216.93","663","60.03","9"
"04/10/12 11:51:22","43.9356","159.7","217.4","736","60.03","11"
"04/10/12 11:56:23","43.9479","158.4","217.53","730","60.07","12"
"04/10/12 12:01:22","43.9596","162.8","217.47","747","60.03","13"
"04/10/12 12:06:23","43.9734","176.8","217.53","808","60.0","14"
"04/10/12 12:11:23","43.9861","138.2","216.4","642","60.0","14"
"04/10/12 12:16:22","43.9995","150.7","217.15","698","60.0","15"
"04/10/12 12:21:22","44.0086","82.0","215.37","402","60.03","13"
"04/10/12 12:26:22","44.0177","125.8","215.83","593","60.03","14"
"04/10/12 12:31:22","44.0237","46.0","214.88","226","60.03","12"
"04/10/12 12:36:22","44.0276","52.2","214.15","88","60.0","11"
"04/10/12 12:41:22","44.0314","50.4","215.29","266","60.03","10"
"04/10/12 12:46:22","44.0343","33.5","214.07","291","60.0","10"
"04/10/12 12:51:21","44.0373","48.6","213.89","242","60.0","9"
"04/10/12 12:56:22","44.0406","47.0","213.45","115","60.03","9"
"04/10/12 13:01:22","44.0444","52.5","215.66","100","60.03","9"
"04/10/12 13:06:22","44.0482","47.3","215.42","367","60.03","9"
"04/10/12 13:11:22","44.0522","55.7","215.23","197","60.0","9"
"04/10/12 13:16:23","44.058","90.4","216.51","440","60.0","9"
"04/10/12 13:21:22","44.0643","76.3","215.33","378","60.0","9"
"04/10/12 13:26:22","44.0702","76.7","216.05","382","60.03","9"
"04/10/12 13:31:22","44.0782","137.5","218.73","639","60.03","9"
"04/10/12 13:36:21","44.0879","108.7","217.97","513","60.03","10"
"04/10/12 13:41:22","44.0949","87.3","216.62","429","60.03","10"
"04/10/12 13:46:23","44.106","135.7","218.25","629","60.0","11"
"04/10/12 13:51:21","44.1175","174.0","218.95","795","60.07","12"
"04/10/12 13:56:23","44.1288","146.9","218.9","672","60.03","13"
"04/10/12 14:01:23","44.1363","81.1","216.42","395","60.03","12"
"04/10/12 14:06:22","44.1433","74.2","215.58","370","60.03","11"
"04/10/12 14:11:23","44.1516","100.2","216.89","480","60.0","11"
"04/10/12 14:16:23","44.1589","81.7","216.83","399","60.0","11"
"04/10/12 14:21:22","44.1666","118.9","217.71","558","60.07","11"
"04/10/12 14:26:22","44.1743","96.8","217.25","466","60.0","11"
"04/10/12 14:31:22","44.1819","123.5","217.49","576","60.0","11"
"04/10/12 14:36:23","44.1901","106.8","217.25","507","60.03","11"
"04/10/12 14:41:23","44.1978","98.7","216.92","473","60.0","11"
"04/10/12 14:46:21","44.2063","110.1","217.27","522","60.03","11"
"04/10/12 14:51:22","44.215","142.1","217.88","654","60.03","12"
"04/10/12 14:56:23","44.2266","173.2","219.1","790","60.03","13"
"04/10/12 15:01:22","44.2388","157.7","218.01","726","60.03","14"
"04/10/12 15:06:23","44.2503","149.0","217.94","687","60.0","14"
"04/10/12 15:11:23","44.2612","138.0","217.52","645","60.07","14"
"04/10/12 15:16:22","44.2718","135.3","218.09","630","60.0","14"
"04/10/12 15:21:22","44.2823","133.2","218.71","617","60.03","14"
"04/10/12 15:26:22","44.2925","131.0","218.62","609","60.0","14"
"04/10/12 15:31:22","44.3026","123.9","218.1","577","60.03","14"
"04/10/12 15:36:23","44.312","108.3","217.71","511","60.03","14"
"04/10/12 15:41:22","44.3211","119.7","217.4","561","60.03","13"
"04/10/12 15:46:23","44.3302","119.0","217.35","560","60.0","13"
"04/10/12 15:51:23","44.3394","116.1","217.65","547","60.0","13"
"04/10/12 15:56:22","44.3483","113.6","217.75","539","60.03","13"
"04/10/12 16:01:23","44.357","107.5","217.48","509","60.03","13"
"04/10/12 16:06:21","44.3648","97.8","216.86","467","60.0","12"
"04/10/12 16:11:22","44.3727","104.9","217.52","501","60.03","12"
"04/10/12 16:16:23","44.3804","70.7","216.47","354","60.0","12"
"04/10/12 16:21:22","44.3876","95.3","216.41","461","60.03","12"
"04/10/12 16:26:22","44.3948","91.2","217.18","442","60.03","12"
"04/10/12 16:31:23","44.4018","87.8","216.97","428","60.03","12"
"04/10/12 16:36:22","44.4082","79.2","216.93","385","60.03","11"
"04/10/12 16:41:23","44.4141","77.4","216.45","379","60.03","11"
"04/10/12 16:46:22","44.4199","76.0","215.78","375","60.03","11"
"04/10/12 16:51:23","44.4257","72.6","216.17","363","60.0","11"
"04/10/12 16:56:23","44.4311","68.0","215.71","343","60.0","11"
"04/10/12 17:01:22","44.4362","64.3","215.86","325","60.07","11"
"04/10/12 17:06:22","44.441","39.7","215.7","290","60.03","11"
"04/10/12 17:11:22","44.4448","46.5","216.18","122","60.03","10"
"04/10/12 17:16:22","44.4487","61.2","215.6","256","60.03","10"
"04/10/12 17:21:21","44.4525","49.8","215.31","346","60.0","10"
"04/10/12 17:26:22","44.456","48.3","215.28","266","60.07","10"
"04/10/12 17:31:23","44.4592","44.9","215.27","332","60.03","10"
"04/10/12 17:36:21","44.462","30.5","213.78","295","60.0","9"
"04/10/12 17:41:22","44.4646","32.0","215.15","180","60.03","9"
"04/10/12 17:46:23","44.4669","30.4","215.46","63","60.07","9"
"04/10/12 17:51:23","44.4689","23.7","215.07","265","60.03","9"
"04/10/12 17:56:22","44.4705","17.6","215.35","21","60.03","9"
"04/10/12 18:01:22","44.4719","12.3","214.89","8","60.03","9"
"04/10/12 18:06:23","44.4731","11.3","214.98","98","60.0","9"
"04/10/12 18:11:22","44.474","16.2","213.62","24","60.03","9"
"04/10/12 18:16:22","44.4747","13.0","214.65","0","60.03","8"
"04/10/12 18:21:23","44.4752","0.0","214.5","0","60.0","8"
"04/10/12 18:26:23","44.4755","0.0","213.98","184","60.07","8"
"04/10/12 18:31:22","44.4758","12.4","214.41","0","60.0","8"
"04/10/12 18:36:22","44.476","13.3","214.99","4","60.03","8"
"04/11/12 06:41:24","44.4771","8.3","213.75","111","60.03","4"
"04/11/12 06:46:23","44.4777","0.2","213.55","232","60.03","4"
"04/11/12 06:51:23","44.4784","12.0","213.36","2","60.0","4"
"04/11/12 06:56:22","44.4794","21.1","212.81","226","60.0","4"
"04/11/12 07:01:22","44.4805","17.6","213.72","70","60.0","5"
"04/11/12 07:06:22","44.4819","26.3","213.16","61","60.03","5"
"04/11/12 07:11:22","44.4835","16.9","214.65","276","60.03","5"
"04/11/12 07:16:23","44.4853","17.7","214.01","163","60.03","6"
"04/11/12 07:21:23","44.4873","30.0","212.65","64","60.03","6"
"04/11/12 07:26:24","44.4896","35.8","213.18","264","60.03","6"
"04/11/12 07:31:22","44.4922","30.6","213.36","274","60.07","6"
"04/11/12 07:36:23","44.4952","45.5","214.14","190","60.03","6"
"04/11/12 07:41:23","44.4984","47.5","214.03","230","60.03","6"
"04/11/12 07:46:24","44.502","49.3","214.71","218","60.03","7"
"04/11/12 07:51:22","44.5057","41.5","214.23","391","60.03","7"
"04/11/12 07:56:22","44.5096","41.1","214.75","345","60.0","7"
"04/11/12 08:01:23","44.5135","49.3","214.17","352","60.03","8"
"04/11/12 08:06:22","44.5176","56.9","215.28","353","60.03","8"
"04/11/12 08:11:22","44.5228","38.1","214.65","130","60.0","9"
"04/11/12 08:16:22","44.5276","86.3","216.08","418","60.03","9"
"04/11/12 08:21:23","44.5337","93.0","215.82","453","60.03","9"
"04/11/12 08:26:23","44.541","93.6","216.61","450","60.03","9"
"04/11/12 08:31:23","44.5454","41.0","213.84","169","60.0","9"
"04/11/12 08:36:22","44.5483","42.3","213.96","99","60.03","9"
"04/11/12 08:41:23","44.551","32.6","213.58","207","60.03","9"
"04/11/12 08:46:23","44.5539","38.4","214.88","299","60.03","9"
"04/11/12 08:51:23","44.5562","34.8","214.63","90","60.03","9"
"04/11/12 08:56:23","44.558","17.0","215.03","31","60.03","9"
"04/11/12 09:01:23","44.5599","25.9","214.86","74","60.0","9"
"04/11/12 09:06:22","44.5626","32.7","215.41","81","60.0","9"
"04/11/12 09:11:22","44.5645","26.5","214.68","227","60.03","9"
"04/11/12 09:16:22","44.5663","13.4","214.41","294","60.07","9"
"04/11/12 09:21:23","44.5684","31.6","215.11","185","60.0","9"
"04/11/12 09:26:23","44.5711","49.3","215.22","360","60.03","9"
"04/11/12 09:31:23","44.5746","44.5","215.44","152","60.0","9"
"04/11/12 09:36:23","44.5774","47.0","215.59","357","60.03","9"
"04/11/12 09:41:23","44.5811","53.0","215.63","131","60.03","9"
"04/11/12 09:46:23","44.5847","48.0","214.5","348","60.0","9"
"04/11/12 09:51:23","44.588","42.0","214.32","232","60.03","9"
"04/11/12 09:56:22","44.591","35.4","214.85","160","60.03","9"
"04/11/12 10:01:22","44.5945","52.6","215.35","291","60.0","10"
"04/11/12 10:06:23","44.598","50.7","214.52","224","60.03","10"
"04/11/12 10:11:23","44.6015","37.9","213.45","108","60.03","10"
"04/11/12 10:16:22","44.6052","56.4","215.55","228","60.07","10"
"04/11/12 10:21:22","44.6087","51.8","214.43","215","60.03","10"
"04/11/12 10:26:23","44.6126","56.9","214.85","361","60.03","11"
"04/11/12 10:31:22","44.6164","41.0","215.48","344","60.03","11"
"04/11/12 10:36:22","44.6201","48.6","214.8","111","60.03","11"
"04/11/12 10:41:23","44.6239","61.2","215.78","232","60.0","11"
"04/11/12 10:46:24","44.6278","45.5","214.54","339","60.0","11"
"04/11/12 10:51:22","44.632","89.3","216.5","435","60.0","11"
"04/11/12 10:56:23","44.6372","62.3","215.93","316","60.07","11"
"04/11/12 11:01:23","44.6413","54.2","216.23","325","60.0","11"
"04/11/12 11:06:22","44.6457","63.6","215.7","322","60.03","11"
"04/11/12 11:11:23","44.6518","82.3","217.34","405","60.03","12"
"04/11/12 11:16:23","44.6568","46.5","215.72","229","60.03","12"
"04/11/12 11:21:23","44.6608","67.1","216.44","112","60.03","12"
"04/11/12 11:26:23","44.6672","80.7","216.61","395","60.03","12"
"04/11/12 11:31:23","44.6734","156.2","218.24","717","60.03","13"
"04/11/12 11:36:23","44.6803","61.7","215.85","316","60.03","13"
"04/11/12 11:41:22","44.6842","54.6","216.41","117","60.03","13"
"04/11/12 11:46:23","44.6891","81.0","216.69","398","60.03","13"
"04/11/12 11:51:23","44.6952","75.9","217.52","374","60.0","13"
"04/11/12 11:56:24","44.701","65.1","216.38","329","60.03","13"
"04/11/12 12:01:24","44.7063","82.2","215.69","405","60.03","13"
"04/11/12 12:06:22","44.712","68.7","216.42","345","60.03","12"
"04/11/12 12:11:23","44.7164","49.7","215.8","98","60.0","12"
"04/11/12 12:16:23","44.7222","83.0","216.75","404","60.0","13"
"04/11/12 12:21:24","44.729","73.1","216.95","366","60.07","13"
"04/11/12 12:26:22","44.7348","77.6","216.67","382","60.03","13"
"04/11/12 12:31:22","44.7392","47.3","215.53","221","60.03","13"
"04/11/12 12:36:23","44.7453","62.9","215.58","321","60.0","13"
"04/11/12 12:41:22","44.7523","86.7","216.83","423","60.03","13"
"04/11/12 12:46:23","44.757","41.0","215.79","351","60.03","13"
"04/11/12 12:51:24","44.763","81.0","215.5","397","60.0","13"
"04/11/12 12:56:24","44.7688","71.3","215.77","359","60.07","13"
"04/11/12 13:01:23","44.7739","66.7","215.33","335","60.0","13"
"04/11/12 13:06:22","44.779","72.9","216.72","363","60.03","13"
"04/11/12 13:11:23","44.7843","63.2","215.45","320","60.0","13"
"04/11/12 13:16:23","44.7886","42.3","215.56","245","60.0","13"
"04/11/12 13:21:22","44.7925","61.9","215.39","152","60.03","13"
"04/11/12 13:26:23","44.7964","56.3","216.21","167","60.0","13"
"04/11/12 13:31:24","44.8011","74.9","216.53","373","60.03","13"
"04/11/12 13:36:23","44.8073","97.5","215.89","473","60.03","13"
"04/11/12 13:41:23","44.8137","69.9","215.76","352","60.03","13"
"04/11/12 13:46:22","44.8191","65.3","216.58","330","60.03","13"
"04/11/12 13:51:23","44.8246","70.9","216.88","357","60.0","13"
"04/11/12 13:56:23","44.8298","62.6","216.0","319","60.03","13"
"04/11/12 14:01:23","44.8341","42.9","215.65","362","60.03","13"
"04/11/12 14:06:23","44.8379","54.6","215.96","87","60.03","13"
"04/11/12 14:11:24","44.8417","56.5","215.47","231","60.0","13"
"04/11/12 14:16:23","44.8456","36.4","215.62","257","60.03","13"
"04/11/12 14:21:23","44.8494","52.3","215.79","144","60.03","13"
"04/11/12 14:26:22","44.8532","43.7","216.9","172","60.03","12"
"04/11/12 14:31:23","44.8571","54.4","216.61","123","60.03","12"
"04/11/12 14:36:22","44.8609","50.4","215.49","235","60.03","13"
"04/11/12 14:41:23","44.8647","41.6","216.06","369","60.03","12"
"04/11/12 14:46:23","44.8685","46.4","215.49","381","60.0","12"
"04/11/12 14:51:22","44.8724","43.9","216.63","362","60.03","12"
"04/11/12 14:56:24","44.8762","49.8","215.71","399","60.03","12"
"04/11/12 15:01:22","44.8801","53.8","214.93","348","60.0","12"
"04/11/12 15:06:23","44.8839","52.0","215.79","372","60.0","12"
"04/11/12 15:11:22","44.8884","67.2","216.56","340","60.03","12"
"04/11/12 15:21:22","44.8987","67.0","216.31","340","60.03","12"
"04/11/12 15:26:22","44.9033","39.5","215.94","299","60.07","12"
"04/11/12 15:31:23","44.9084","70.7","216.68","354","60.0","13"
"04/11/12 15:36:23","44.9131","52.6","214.83","218","60.03","12"
"04/11/12 15:41:22","44.9183","65.6","216.09","333","60.0","13"
"04/11/12 15:46:23","44.9256","145.7","218.25","674","60.03","13"
"04/11/12 15:51:22","44.9313","44.3","215.18","105","60.0","13"
"04/11/12 15:56:23","44.935","43.6","215.4","325","60.03","13"
"04/11/12 16:01:22","44.9421","112.5","217.42","535","60.03","13"
"04/11/12 16:11:23","44.9568","101.0","216.46","485","60.03","13"
"04/11/12 16:16:24","44.964","97.3","216.68","465","60.03","14"
"04/11/12 16:21:22","44.9712","91.8","216.72","446","60.03","14"
"04/11/12 16:26:22","44.9783","88.8","216.91","429","60.0","15"
"04/11/12 16:31:22","44.9849","85.1","215.5","418","60.0","15"
"04/11/12 16:36:24","44.9915","81.6","215.24","402","60.03","15"
"04/11/12 16:41:23","44.9977","78.2","215.55","388","60.03","15"
"04/11/12 16:46:24","45.0036","74.5","215.22","374","60.03","15"
"04/11/12 16:51:23","45.0093","70.7","214.56","356","60.03","15"
"04/11/12 16:56:23","45.0146","66.6","215.29","339","60.03","15"
"04/11/12 17:01:23","45.0196","62.4","215.09","322","60.07","15"
"04/11/12 17:06:23","45.024","48.9","214.63","296","60.03","15"
"04/11/12 17:11:23","45.0278","49.9","215.32","324","60.03","14"
"04/11/12 17:16:22","45.0316","56.0","214.75","158","60.03","14"
"04/11/12 17:21:23","45.0354","39.6","214.56","261","60.03","14"
"04/11/12 17:26:23","45.0389","38.4","214.93","123","60.03","14"
"04/11/12 17:31:23","45.0421","37.5","214.87","158","60.03","14"
"04/11/12 17:36:24","45.0449","31.7","214.47","205","60.03","13"
"04/11/12 17:41:22","45.0474","34.6","213.98","93","60.03","13"
"04/11/12 17:46:23","45.0497","31.0","214.22","19","60.0","13"
"04/11/12 17:51:23","45.0517","32.1","214.27","75","60.03","13"
"04/11/12 17:56:23","45.0535","21.9","214.89","17","60.03","12"
"04/11/12 18:01:22","45.0548","16.9","214.66","219","60.03","12"
"04/11/12 18:06:22","45.056","10.2","214.28","22","60.03","11"
"04/11/12 18:11:24","45.0569","11.3","214.44","46","60.0","11"
"04/11/12 18:16:23","45.0576","1.4","214.34","227","60.03","11"
"04/11/12 18:21:22","45.0582","4.3","214.16","198","60.03","11"
"04/11/12 18:26:23","45.0586","0.0","213.31","194","60.0","10"
"04/11/12 18:31:23","45.0588","13.1","213.88","6","60.0","10"
"04/11/12 18:36:24","45.0591","13.3","213.96","73","60.03","9"
"04/11/12 18:41:23","45.0593","0.0","213.75","0","60.03","9"
"04/12/12 06:56:22","45.0614","7.1","214.58","17","60.03","2"
"04/12/12 07:01:22","45.0624","14.5","213.56","222","60.0","2"
"04/12/12 07:06:23","45.0637","22.1","214.01","13","60.0","3"
"04/12/12 07:11:23","45.0652","12.4","214.83","205","60.0","3"
"04/12/12 07:16:24","45.0669","14.8","214.35","134","60.03","3"
"04/12/12 07:21:22","45.0684","26.6","214.1","223","60.03","4"
"04/12/12 07:26:23","45.07","27.9","214.22","120","60.03","4"
"04/12/12 07:31:23","45.0714","13.7","215.04","208","60.0","5"
"04/12/12 07:36:23","45.0729","23.4","213.74","157","60.03","5"
"04/12/12 07:41:23","45.0744","13.6","212.51","30","60.0","6"
"04/12/12 07:46:23","45.0759","26.7","212.89","234","60.0","6"
"04/12/12 07:51:23","45.0774","19.2","215.68","14","60.03","6"
"04/12/12 07:56:24","45.0805","50.8","215.3","280","60.03","6"